User: anonymous   Login
Location: Unspecified
(0.0000°N, 0.0000°E)
Time: 11:24:09
(UTC+01:00)
Language:

Centaur AC-64 - Orbit

View from above orbital plane
View from above orbital plane
View from above satellite
View from above satellite

Ground track
Ground track

The orbit data is extracted from the following two-line orbital elements,

1 15874U 85055B   17321.75246362  .00001279  00000-0  61593-3 0  9993
2 15874  23.2899   4.3369 6563109 353.4086   1.1697  3.19617377335362
Epoch (UTC): 17 November 2017 18:03:32
Eccentricity: 0.6563109
inclination: 23.2899°
perigee height: 313 km
apogee height: 25866 km
right ascension of ascending node: 4.3369°
argument of perigee: 353.4086°
revolutions per day: 3.19617377
mean anomaly at epoch: 1.1697°
orbit number at epoch: 33536

The dashed part of the orbit path shows where the satellite is in the earth's shadow,  

DLR